Location: STAR School
(35.3054°N, 111.2976°W)
Time: 04:28:54
(UTC-07:00)

SR - Pass Details

Date: 30 May 2019
Orbit: 582 x 874 km, 66.7° (Epoch: 24 June)

Event Time Altitude Azimuth Distance (km) Brightness Sun altitude
Rises 20:13:59 0° 306° (NW) 3,038 ? -7.9°
Reaches altitude 10° 20:17:49 10° 275° (W) 2,192 ? -8.6°
Maximum altitude 20:19:32 12° 254° (WSW) 2,106 ? -8.9°
Drops below altitude 10° 20:21:18 10° 234° (SW) 2,255 ? -9.2°
Sets 20:25:26 0° 203° (SSW) 3,254 ? -9.8°
